When you browse on this site, cookies collect data to enhance your experience and personalize the content and advertising you see.
Visit our Privacy Policy to learn more. By continuing to use the site, you agree to this use of cookies and data.
  • In Lithuania
  • List of Countries
  • For 7 days
  • Water Temperature
  • Satellite Maps
  • Weather Map
  • Weather Widgets
  • user-avatar
    Login

    Hourly Weather Elkin

    Today, 22 March, Friday

    Time Temperature Precipitation Wind Pressure Humidity
    00:00 +7°C° 0 mm 2 mps 766 mmHg 63%
    01:00 +7°C° 0 mm 2 mps 766 mmHg 64%
    02:00 +5°C° 0 mm 3 mps 765 mmHg 66%
    03:00 +5°C° 0 mm 3 mps 765 mmHg 69%
    04:00 +4°C° 0 mm 3 mps 765 mmHg 73%
    05:00 +3°C° 0 mm 3 mps 765 mmHg 78%
    06:00 +3°C° 0 mm 3 mps 765 mmHg 82%
    07:00 +3°C° 0 mm 3 mps 765 mmHg 77%
    08:00 +4°C° 0 mm 4 mps 765 mmHg 73%
    09:00 +4°C° 0 mm 4 mps 765 mmHg 68%
    10:00 +5°C° 0 mm 5 mps 765 mmHg 63%
    11:00 +6°C° 0 mm 5 mps 765 mmHg 58%
    12:00 +7°C° 0 mm 5 mps 765 mmHg 53%
    13:00 +7°C° 0 mm 5 mps 764 mmHg 52%
    14:00 +7°C° 0 mm 5 mps 764 mmHg 50%
    15:00 +8°C° 0 mm 5 mps 764 mmHg 49%
    16:00 +7°C° 0 mm 5 mps 763 mmHg 50%
    17:00 +7°C° 0 mm 6 mps 763 mmHg 52%
    18:00 +7°C° 0 mm 6 mps 762 mmHg 54%
    19:00 +7°C° 0.1 mm 6 mps 761 mmHg 58%
    20:00 +5°C° 0.1 mm 7 mps 761 mmHg 62%
    21:00 +5°C° 0.1 mm 7 mps 760 mmHg 66%
    22:00 +4°C° 0.5 mm 8 mps 759 mmHg 69%
    23:00 +3°C° 0.5 mm 9 mps 758 mmHg 73%

    Tomorrow, 23 March, Saturday

    Time Temperature Precipitation Wind Pressure Humidity
    00:00 +3°C° 0.5 mm 9 mps 757 mmHg 77%
    01:00 +4°C° 0.9 mm 8 mps 757 mmHg 75%
    02:00 +4°C° 0.9 mm 7 mps 757 mmHg 74%
    03:00 +3°C° 0.9 mm 6 mps 756 mmHg 72%
    04:00 +2°C° 0 mm 5 mps 757 mmHg 73%
    05:00 +1°C° 0 mm 5 mps 757 mmHg 73%
    06:00 0°C° 0 mm 4 mps 757 mmHg 73%
    07:00 +1°C° 0 mm 5 mps 758 mmHg 69%
    08:00 +1°C° 0 mm 5 mps 758 mmHg 65%
    09:00 +2°C° 0 mm 6 mps 759 mmHg 61%
    10:00 +2°C° 0 mm 5 mps 759 mmHg 57%
    11:00 +3°C° 0 mm 5 mps 759 mmHg 53%
    12:00 +5°C° 0 mm 5 mps 759 mmHg 49%
    13:00 +5°C° 0.1 mm 4 mps 759 mmHg 48%
    14:00 +5°C° 0.1 mm 4 mps 759 mmHg 47%
    15:00 +6°C° 0.1 mm 4 mps 759 mmHg 46%
    16:00 +5°C° 0.1 mm 4 mps 759 mmHg 48%
    17:00 +5°C° 0.1 mm 3 mps 759 mmHg 50%
    18:00 +5°C° 0.1 mm 3 mps 759 mmHg 52%
    19:00 +4°C° 0 mm 3 mps 760 mmHg 56%
    20:00 +3°C° 0 mm 3 mps 760 mmHg 60%
    21:00 +2°C° 0 mm 3 mps 760 mmHg 65%
    22:00 +3°C° 0 mm 2 mps 760 mmHg 67%
    23:00 +2°C° 0 mm 2 mps 761 mmHg 70%

    Day after tomorrow, 24 March, Sunday

    Time Temperature Precipitation Wind Pressure Humidity
    00:00 +2°C° 0 mm 2 mps 761 mmHg 73%
    01:00 +2°C° 0 mm 2 mps 761 mmHg 75%
    02:00 +1°C° 0 mm 2 mps 761 mmHg 78%
    03:00 +1°C° 0 mm 2 mps 761 mmHg 80%
    04:00 +1°C° 0 mm 2 mps 761 mmHg 82%
    05:00 +1°C° 0 mm 2 mps 761 mmHg 83%
    06:00 -1°C° 0 mm 2 mps 761 mmHg 85%
    07:00 +2°C° 0 mm 2 mps 761 mmHg 81%
    08:00 +3°C° 0 mm 2 mps 762 mmHg 77%
    09:00 +4°C° 0 mm 2 mps 762 mmHg 74%
    10:00 +5°C° 0.1 mm 2 mps 762 mmHg 70%
    11:00 +5°C° 0.1 mm 2 mps 762 mmHg 66%
    12:00 +6°C° 0.1 mm 2 mps 762 mmHg 63%
    13:00 +7°C° 0.2 mm 2 mps 762 mmHg 59%
    14:00 +7°C° 0.2 mm 2 mps 761 mmHg 56%
    15:00 +8°C° 0.2 mm 2 mps 761 mmHg 53%
    16:00 +8°C° 0.1 mm 2 mps 761 mmHg 54%
    17:00 +8°C° 0.1 mm 2 mps 761 mmHg 56%
    18:00 +7°C° 0.1 mm 2 mps 761 mmHg 58%
    19:00 +7°C° 0 mm 2 mps 762 mmHg 62%
    20:00 +6°C° 0 mm 2 mps 762 mmHg 67%
    21:00 +4°C° 0 mm 3 mps 762 mmHg 72%
    22:00 +4°C° 0 mm 2 mps 762 mmHg 74%
    23:00 +4°C° 0 mm 2 mps 762 mmHg 77%

    25 March, Monday

    Time Temperature Precipitation Wind Pressure Humidity
    00:00 +3°C° 0 mm 2 mps 762 mmHg 79%
    01:00 +3°C° 0 mm 2 mps 762 mmHg 79%
    02:00 +3°C° 0 mm 2 mps 762 mmHg 79%
    03:00 +2°C° 0 mm 2 mps 762 mmHg 79%
    04:00 +1°C° 0 mm 3 mps 761 mmHg 80%
    05:00 +1°C° 0 mm 3 mps 761 mmHg 81%
    06:00 +1°C° 0 mm 3 mps 761 mmHg 82%
    07:00 +1°C° 0 mm 4 mps 761 mmHg 77%
    08:00 +2°C° 0 mm 5 mps 761 mmHg 72%
    09:00 +5°C° 0 mm 5 mps 761 mmHg 67%
    10:00 +4°C° 0 mm 6 mps 761 mmHg 65%
    11:00 +5°C° 0 mm 6 mps 761 mmHg 63%
    12:00 +6°C° 0 mm 7 mps 760 mmHg 61%
    13:00 +8°C° 0 mm 7 mps 760 mmHg 59%
    14:00 +8°C° 0 mm 7 mps 759 mmHg 58%
    15:00 +9°C° 0 mm 8 mps 759 mmHg 57%
    16:00 +8°C° 0 mm 7 mps 759 mmHg 63%
    17:00 +7°C° 0 mm 6 mps 759 mmHg 68%
    18:00 +6°C° 0 mm 5 mps 759 mmHg 74%
    19:00 +6°C° 0.1 mm 5 mps 759 mmHg 76%
    20:00 +6°C° 0.1 mm 4 mps 760 mmHg 78%
    21:00 +5°C° 0.1 mm 4 mps 760 mmHg 81%
    22:00 +5°C° 0.2 mm 4 mps 760 mmHg 83%
    23:00 +5°C° 0.2 mm 3 mps 760 mmHg 85%

    26 March, Tuesday

    Time Temperature Precipitation Wind Pressure Humidity
    00:00 +5°C° 0.2 mm 3 mps 760 mmHg 87%
    01:00 +4°C° 0.1 mm 3 mps 760 mmHg 88%
    02:00 +5°C° 0.1 mm 2 mps 760 mmHg 90%
    03:00 +6°C° 0.1 mm 1 mps 760 mmHg 91%
    04:00 +6°C° 0 mm 1 mps 760 mmHg 91%
    05:00 +6°C° 0 mm 1 mps 761 mmHg 91%
    06:00 +5°C° 0 mm 0 mps 761 mmHg 91%
    07:00 +5°C° 0 mm 0 mps 761 mmHg 87%
    08:00 +7°C° 0 mm 1 mps 761 mmHg 83%
    09:00 +8°C° 0 mm 1 mps 762 mmHg 79%
    10:00 +8°C° 0.1 mm 1 mps 762 mmHg 75%
    11:00 +9°C° 0.1 mm 1 mps 762 mmHg 72%
    12:00 +9°C° 0.1 mm 1 mps 762 mmHg 69%
    13:00 +9°C° 0.1 mm 1 mps 762 mmHg 68%
    14:00 +10°C° 0.1 mm 1 mps 762 mmHg 67%
    15:00 +10°C° 0.1 mm 1 mps 762 mmHg 66%
    16:00 +10°C° 0 mm 1 mps 762 mmHg 66%
    17:00 +10°C° 0 mm 1 mps 762 mmHg 66%
    18:00 +10°C° 0 mm 1 mps 762 mmHg 66%
    19:00 +9°C° 0 mm 1 mps 763 mmHg 68%
    20:00 +7°C° 0 mm 0 mps 763 mmHg 70%
    21:00 +7°C° 0 mm 0 mps 764 mmHg 73%
    22:00 +7°C° 0 mm 1 mps 764 mmHg 72%
    23:00 +7°C° 0 mm 1 mps 764 mmHg 70%

    27 March, Wednesday

    Time Temperature Precipitation Wind Pressure Humidity
    00:00 +6°C° 0 mm 2 mps 764 mmHg 69%
    01:00 +5°C° 0 mm 2 mps 764 mmHg 68%
    02:00 +5°C° 0 mm 2 mps 764 mmHg 67%
    03:00 +4°C° 0 mm 2 mps 765 mmHg 65%
    04:00 +4°C° 0 mm 2 mps 765 mmHg 67%
    05:00 +4°C° 0 mm 2 mps 765 mmHg 68%
    06:00 +3°C° 0 mm 2 mps 766 mmHg 70%
    07:00 +5°C° 0 mm 2 mps 766 mmHg 65%
    08:00 +6°C° 0 mm 2 mps 766 mmHg 60%
    09:00 +8°C° 0 mm 3 mps 767 mmHg 55%
    10:00 +9°C° 0 mm 3 mps 767 mmHg 50%
    11:00 +10°C° 0 mm 3 mps 767 mmHg 44%
    12:00 +11°C° 0 mm 3 mps 767 mmHg 39%
    13:00 +11°C° 0 mm 3 mps 766 mmHg 36%
    14:00 +12°C° 0 mm 3 mps 766 mmHg 34%
    15:00 +12°C° 0 mm 4 mps 766 mmHg 32%
    16:00 +12°C° 0 mm 3 mps 766 mmHg 35%
    17:00 +11°C° 0 mm 3 mps 766 mmHg 38%
    18:00 +12°C° 0 mm 2 mps 766 mmHg 41%
    19:00 +10°C° 0 mm 2 mps 767 mmHg 44%
    20:00 +8°C° 0 mm 2 mps 767 mmHg 47%
    21:00 +7°C° 0 mm 2 mps 767 mmHg 50%
    22:00 +7°C° 0 mm 2 mps 767 mmHg 50%
    23:00 +6°C° 0 mm 2 mps 767 mmHg 50%
    Show more